| time (UTC) | temp C | wind direction | speed KPH | gust KPH | rain 1hr cm | rain 24hr cm | rain mn cm | humidity % | barometer mb |
| 20260504050731 | 9 | 90 | 0.0 | 0.0 | 0.00 | 0.00 | 0.00 | 47 | 1048.3 |
| 20260504045830 | 9 | 329 | 1.6 | 3.2 | 0.00 | 0.00 | 0.00 | 47 | 1048.3 |
| 20260504044830 | 9 | 315 | 0.0 | 0.0 | 0.00 | 0.00 | 0.00 | 47 | 1048.4 |
| 20260504043830 | 9 | 135 | 1.6 | 3.2 | 0.00 | 0.00 | 0.00 | 47 | 1048.4 |
| 20260504042830 | 10 | 334 | 1.6 | 4.8 | 0.00 | 0.00 | 0.00 | 46 | 1048.3 |
| 20260504041830 | 10 | 157 | 1.6 | 3.2 | 0.00 | 0.00 | 0.00 | 44 | 1048.2 |
| 20260504040833 | 10 | 315 | 1.6 | 3.2 | 0.00 | 0.00 | 0.00 | 44 | 1048.1 |
| 20260504035837 | 10 | 329 | 3.2 | 4.8 | 0.00 | 0.00 | 0.00 | 45 | 1047.9 |
| 20260504033838 | 10 | 315 | 0.0 | 0.0 | 0.00 | 0.00 | 0.00 | 44 | 1047.8 |
| 20260504031936 | 10 | 353 | 1.6 | 3.2 | 0.00 | 0.00 | 0.00 | 43 | 1047.7 |
| 20260504030939 | 11 | 337 | 0.0 | 3.2 | 0.00 | 0.00 | 0.00 | 42 | 1047.7 |
| 20260504024939 | 10 | 22 | 0.0 | 1.6 | 0.00 | 0.00 | 0.00 | 43 | 1047.6 |
| 20260504023938 | 10 | 360 | 0.0 | 0.0 | 0.00 | 0.00 | 0.00 | 43 | 1047.8 |
| 20260504022939 | 10 | 360 | 0.0 | 0.0 | 0.00 | 0.00 | 0.00 | 42 | 1047.6 |
| 20260504021937 | 11 | 360 | 0.0 | 0.0 | 0.00 | 0.00 | 0.00 | 41 | 1047.7 |
| 20260504020939 | 11 | 323 | 1.6 | 4.8 | 0.00 | 0.00 | 0.00 | 40 | 1047.8 |
| 20260504015937 | 11 | 360 | 1.6 | 3.2 | 0.00 | 0.00 | 0.00 | 40 | 1047.9 |
| 20260504014939 | 11 | 353 | 1.6 | 4.8 | 0.00 | 0.00 | 0.00 | 40 | 1047.7 |
| 20260504014036 | 11 | 315 | 3.2 | 6.4 | 0.00 | 0.00 | 0.00 | 39 | 1047.7 |
| 20260504013038 | 11 | 335 | 3.2 | 6.4 | 0.00 | 0.00 | 0.00 | 39 | 1047.7 |
| 20260504012136 | 11 | 337 | 1.6 | 3.2 | 0.00 | 0.00 | 0.00 | 38 | 1047.6 |
| 20260504011140 | 12 | 315 | 1.6 | 3.2 | 0.00 | 0.00 | 0.00 | 38 | 1047.4 |
| 20260504010137 | 12 | 337 | 0.0 | 1.6 | 0.00 | 0.00 | 0.00 | 38 | 1047.3 |
| 20260504005138 | 12 | 315 | 0.0 | 1.6 | 0.00 | 0.00 | 0.00 | 37 | 1047.2 |
| 20260504004138 | 12 | 285 | 0.0 | 1.6 | 0.00 | 0.00 | 0.00 | 35 | 1047.1 |
| 20260504003137 | 13 | 292 | 3.2 | 4.8 | 0.00 | 0.00 | 0.00 | 35 | 1047.1 |
| 20260504002138 | 13 | 315 | 1.6 | 3.2 | 0.00 | 0.00 | 0.00 | 35 | 1046.8 |
| 20260504001139 | 13 | 300 | 4.8 | 6.4 | 0.00 | 0.00 | 0.00 | 34 | 1046.7 |
| 20260504000138 | 13 | 292 | 6.4 | 9.7 | 0.00 | 0.00 | 0.00 | 35 | 1046.6 |
| 20260503235137 | 13 | 315 | 4.8 | 8.0 | 0.00 | 0.00 | 0.00 | 34 | 1046.6 |
| 20260503234138 | 13 | 313 | 3.2 | 4.8 | 0.00 | 0.00 | 0.00 | 33 | 1046.6 |
| 20260503232238 | 14 | 288 | 12.9 | 17.7 | 0.00 | 0.00 | 0.00 | 31 | 1046.5 |
| 20260503231237 | 14 | 320 | 9.7 | 14.5 | 0.00 | 0.00 | 0.00 | 30 | 1046.5 |
| 20260503230240 | 15 | 336 | 12.9 | 22.5 | 0.00 | 0.00 | 0.00 | 30 | 1046.5 |
| 20260503225336 | 15 | 333 | 3.2 | 9.7 | 0.00 | 0.00 | 0.00 | 30 | 1046.5 |
| 20260503224337 | 15 | 337 | 9.7 | 17.7 | 0.00 | 0.00 | 0.00 | 29 | 1046.4 |
| 20260503223339 | 15 | 280 | 6.4 | 11.3 | 0.00 | 0.00 | 0.00 | 29 | 1046.3 |
| 20260503221438 | 15 | 292 | 9.7 | 16.1 | 0.00 | 0.00 | 0.00 | 28 | 1046.4 |
| 20260503220536 | 15 | 20 | 6.4 | 11.3 | 0.00 | 0.00 | 0.00 | 27 | 1046.4 |
| 20260503215539 | 15 | 6 | 4.8 | 8.0 | 0.00 | 0.00 | 0.00 | 28 | 1046.4 |
| 20260503214538 | 15 | 302 | 22.5 | 33.8 | 0.00 | 0.00 | 0.00 | 28 | 1046.0 |
| 20260503213637 | 15 | 317 | 11.3 | 20.9 | 0.00 | 0.00 | 0.00 | 28 | 1046.1 |
| 20260503212637 | 15 | 323 | 17.7 | 29.0 | 0.00 | 0.00 | 0.00 | 28 | 1046.0 |
| 20260503211638 | 15 | 347 | 8.0 | 14.5 | 0.00 | 0.00 | 0.00 | 28 | 1046.2 |
| 20260503210736 | 15 | 295 | 12.9 | 22.5 | 0.00 | 0.00 | 0.00 | 28 | 1046.0 |
| 20260503205737 | 15 | 6 | 8.0 | 12.9 | 0.00 | 0.00 | 0.00 | 28 | 1046.1 |
| 20260503203738 | 14 | 312 | 14.5 | 22.5 | 0.00 | 0.00 | 0.00 | 29 | 1046.4 |
| 20260503202738 | 14 | 346 | 6.4 | 12.9 | 0.00 | 0.00 | 0.00 | 29 | 1046.4 |
| 20260503201837 | 14 | 345 | 11.3 | 20.9 | 0.00 | 0.00 | 0.00 | 30 | 1046.5 |
| 20260503200837 | 13 | 331 | 11.3 | 17.7 | 0.00 | 0.00 | 0.00 | 29 | 1046.6 |
| 20260503194836 | 13 | 324 | 8.0 | 16.1 | 0.00 | 0.00 | 0.00 | 30 | 1047.0 |
| 20260503193836 | 13 | 304 | 14.5 | 19.3 | 0.00 | 0.00 | 0.00 | 30 | 1046.9 |
| 20260503192840 | 13 | 295 | 12.9 | 19.3 | 0.00 | 0.00 | 0.00 | 30 | 1046.9 |
| 20260503191936 | 13 | 21 | 8.0 | 14.5 | 0.00 | 0.00 | 0.00 | 31 | 1047.2 |
| 20260503190937 | 13 | 318 | 9.7 | 19.3 | 0.00 | 0.00 | 0.00 | 31 | 1047.2 |
| 20260503190036 | 13 | 331 | 12.9 | 27.4 | 0.00 | 0.00 | 0.00 | 31 | 1047.1 |
| 20260503185036 | 13 | 329 | 9.7 | 20.9 | 0.00 | 0.00 | 0.00 | 31 | 1047.2 |
| 20260503184037 | 13 | 283 | 17.7 | 24.1 | 0.00 | 0.00 | 0.00 | 30 | 1047.2 |
| 20260503183038 | 13 | 21 | 1.6 | 3.2 | 0.00 | 0.00 | 0.00 | 31 | 1047.2 |
| 20260503182137 | 13 | 342 | 9.7 | 17.7 | 0.00 | 0.00 | 0.00 | 31 | 1047.4 |
| 20260503181139 | 12 | 317 | 14.5 | 20.9 | 0.00 | 0.00 | 0.00 | 31 | 1047.3 |
| 20260503180137 | 12 | 306 | 16.1 | 30.6 | 0.00 | 0.00 | 0.00 | 32 | 1047.2 |
| 20260503175138 | 12 | 325 | 12.9 | 25.7 | 0.00 | 0.00 | 0.00 | 33 | 1047.3 |
| 20260503174236 | 12 | 333 | 6.4 | 11.3 | 0.00 | 0.00 | 0.00 | 33 | 1047.4 |
| 20260503173238 | 12 | 314 | 12.9 | 24.1 | 0.00 | 0.00 | 0.00 | 35 | 1047.6 |
| 20260503172337 | 12 | 2 | 4.8 | 8.0 | 0.00 | 0.00 | 0.00 | 33 | 1047.6 |
| 20260503150736 | 8 | 338 | 11.3 | 19.3 | 0.00 | 0.00 | 0.00 | 44 | 1048.6 |
| 20260503130938 | 7 | 2 | 4.8 | 12.9 | 0.00 | 0.00 | 0.00 | 52 | 1048.5 |
| 20260503080137 | 7 | 4 | 4.8 | 9.7 | 0.00 | 0.03 | 0.00 | 52 | 1045.6 |
| 20260503072137 | 7 | 21 | 9.7 | 19.3 | 0.00 | 0.05 | 0.00 | 51 | 1045.4 |
| 20260503071137 | 7 | 15 | 4.8 | 9.7 | 0.00 | 0.05 | 0.00 | 52 | 1045.4 |
| 20260503070137 | 7 | 24 | 1.6 | 8.0 | 0.00 | 0.05 | 0.00 | 52 | 1045.5 |
| 20260503053536 | 7 | 14 | 1.6 | 4.8 | 0.00 | 0.05 | 0.00 | 54 | 1045.8 |
| 20260503052537 | 7 | 22 | 1.6 | 3.2 | 0.00 | 0.05 | 0.00 | 55 | 1046.1 |